MZN830 KEWR-KFLL

Flight info

Callsign MZN830
Flight time N/A
Altitude FL360
Route ELVAE NECCK WHITE Q409 CRPLR KOOKI Q161 BENCH Q161 CHIEZ Y291 MAJIK CUUDA3
Aircraft B763/M-SABDE1E2FGIJ1J3J4J5J6J7M2M3P1P2RTUVW/NACEHB1B2U1V1V2D1G1

Departure

Time 2026-05-05 16:59
Airport Newark Liberty International Airport (KEWR)

Arrival

Time N/A
Airport Fort Lauderdale Hollywood International Airport (KFLL)
Time Latitude Longitude Altitude Speed Heading
2026-05-05 16:38 40.68132 -74.18111 32 ft 0 kts 303°
2026-05-05 16:47 40.68128 -74.18100 32 ft 0 kts 293°
2026-05-05 16:48 40.68123 -74.18083 32 ft 0 kts 293°
2026-05-05 16:48 40.68117 -74.18067 32 ft 0 kts 293°
2026-05-05 16:48 40.68109 -74.18054 32 ft 0 kts 332°
2026-05-05 16:48 40.68095 -74.18052 32 ft 0 kts 16°
2026-05-05 16:49 40.68088 -74.18056 32 ft 0 kts 26°
2026-05-05 16:49 40.68089 -74.18056 32 ft 0 kts 26°
2026-05-05 16:50 40.68089 -74.18055 32 ft 0 kts 26°
2026-05-05 16:52 40.68090 -74.18055 32 ft 0 kts 26°
2026-05-05 16:52 40.68091 -74.18054 32 ft 1 kts 26°
2026-05-05 16:52 40.68120 -74.18036 32 ft 6 kts 26°
2026-05-05 16:53 40.68136 -74.18026 32 ft 3 kts 26°
2026-05-05 16:53 40.68161 -74.17997 32 ft 4 kts 78°
2026-05-05 16:53 40.68133 -74.17956 32 ft 9 kts 149°
2026-05-05 16:53 40.68067 -74.17900 32 ft 13 kts 129°
2026-05-05 16:54 40.68044 -74.17798 32 ft 12 kts 64°
2026-05-05 16:54 40.68120 -74.17734 32 ft 16 kts 26°
2026-05-05 16:54 40.68228 -74.17665 32 ft 18 kts 26°
2026-05-05 16:54 40.68358 -74.17581 32 ft 24 kts 26°
2026-05-05 16:55 40.68512 -74.17483 32 ft 23 kts 26°
2026-05-05 16:55 40.68647 -74.17398 32 ft 21 kts 25°
2026-05-05 16:55 40.68787 -74.17308 32 ft 24 kts 25°
2026-05-05 16:55 40.68947 -74.17207 32 ft 28 kts 25°
2026-05-05 16:56 40.69126 -74.17094 32 ft 30 kts 26°
2026-05-05 16:56 40.69307 -74.16978 32 ft 23 kts 26°
2026-05-05 16:56 40.69423 -74.16903 32 ft 19 kts 26°
2026-05-05 16:56 40.69552 -74.16822 32 ft 20 kts 27°
2026-05-05 16:57 40.69670 -74.16748 32 ft 19 kts 25°
2026-05-05 16:57 40.69782 -74.16677 32 ft 18 kts 26°
2026-05-05 16:57 40.69893 -74.16606 32 ft 18 kts 26°
2026-05-05 16:57 40.69979 -74.16536 32 ft 13 kts 60°
2026-05-05 16:58 40.69967 -74.16429 32 ft 12 kts 164°
2026-05-05 16:58 40.69885 -74.16451 32 ft 0 kts 205°
2026-05-05 16:58 40.69870 -74.16461 32 ft 5 kts 205°
2026-05-05 16:58 40.69813 -74.16497 32 ft 17 kts 205°
2026-05-05 16:59 40.69417 -74.16749 32 ft 111 kts 206°
2026-05-05 16:59 40.68458 -74.17365 87 ft 189 kts 205°
2026-05-05 16:59 40.67195 -74.18164 552 ft 208 kts 206°
2026-05-05 16:59 40.65879 -74.18984 996 ft 214 kts 207°
2026-05-05 17:00 40.64504 -74.19801 1480 ft 217 kts 207°
2026-05-05 17:00 40.63115 -74.20579 1953 ft 219 kts 208°
2026-05-05 17:00 40.61659 -74.21341 2437 ft 226 kts 206°
2026-05-05 17:00 40.60194 -74.22144 2942 ft 228 kts 210°
2026-05-05 17:01 40.58887 -74.23292 3441 ft 230 kts 221°
2026-05-05 17:01 40.57668 -74.24669 3943 ft 231 kts 224°
2026-05-05 17:01 40.56449 -74.26064 4445 ft 234 kts 221°
2026-05-05 17:01 40.55037 -74.27133 4960 ft 238 kts 208°
2026-05-05 17:02 40.53530 -74.27992 5469 ft 236 kts 210°
2026-05-05 17:02 40.52000 -74.28857 5817 ft 242 kts 210°
2026-05-05 17:02 40.50447 -74.29770 5967 ft 245 kts 208°
2026-05-05 17:02 40.48930 -74.30759 6020 ft 245 kts 210°
2026-05-05 17:03 40.47414 -74.31788 6034 ft 244 kts 211°
2026-05-05 17:03 40.45911 -74.32814 6036 ft 243 kts 211°
2026-05-05 17:03 40.44412 -74.33837 6061 ft 241 kts 211°
2026-05-05 17:03 40.42948 -74.34828 6429 ft 237 kts 209°
2026-05-05 17:04 40.41328 -74.35359 6917 ft 249 kts 187°
2026-05-05 17:04 40.39601 -74.34801 7457 ft 270 kts 160°
2026-05-05 17:04 40.38117 -74.33181 8052 ft 288 kts 137°
2026-05-05 17:04 40.36973 -74.30962 8679 ft 298 kts 126°
2026-05-05 17:05 40.36011 -74.28530 9304 ft 305 kts 121°
2026-05-05 17:05 40.35082 -74.25988 9932 ft 314 kts 121°
2026-05-05 17:05 40.34126 -74.23379 10561 ft 320 kts 121°
2026-05-05 17:05 40.33111 -74.20695 11010 ft 342 kts 122°
2026-05-05 17:06 40.31702 -74.18114 11390 ft 357 kts 139°
2026-05-05 17:06 40.29644 -74.16297 12079 ft 359 kts 160°
2026-05-05 17:06 40.27239 -74.15561 12946 ft 356 kts 180°
2026-05-05 17:06 40.24804 -74.15969 13861 ft 354 kts 199°
2026-05-05 17:07 40.22507 -74.17155 14828 ft 355 kts 208°
2026-05-05 17:07 40.20238 -74.18461 15743 ft 362 kts 206°
2026-05-05 17:07 40.17874 -74.19666 16593 ft 369 kts 204°
2026-05-05 17:07 40.15398 -74.20702 17451 ft 376 kts 200°
2026-05-05 17:08 40.12845 -74.21579 18286 ft 382 kts 198°
2026-05-05 17:08 40.10234 -74.22387 18919 ft 394 kts 198°
2026-05-05 17:08 40.07518 -74.23182 19496 ft 406 kts 197°
2026-05-05 17:08 40.04753 -74.23960 20536 ft 403 kts 196°
2026-05-05 17:09 40.02036 -74.24719 21559 ft 402 kts 196°
2026-05-05 17:09 39.99397 -74.25866 22368 ft 400 kts 207°
2026-05-05 17:09 39.96957 -74.27637 22973 ft 405 kts 216°
2026-05-05 17:09 39.94570 -74.29661 23549 ft 413 kts 217°
2026-05-05 17:10 39.92165 -74.31760 24232 ft 418 kts 218°
2026-05-05 17:10 39.89777 -74.33873 24979 ft 420 kts 218°
2026-05-05 17:10 39.87349 -74.36038 25788 ft 422 kts 217°
2026-05-05 17:10 39.84909 -74.38178 26459 ft 426 kts 216°
2026-05-05 17:11 39.82433 -74.40276 27076 ft 431 kts 215°
2026-05-05 17:11 39.79877 -74.42401 27682 ft 436 kts 214°
2026-05-05 17:11 39.77297 -74.44526 28257 ft 441 kts 214°
2026-05-05 17:11 39.74693 -74.46651 28822 ft 445 kts 213°
2026-05-05 17:12 39.72045 -74.48787 29267 ft 452 kts 215°
2026-05-05 17:12 39.69365 -74.50956 29851 ft 455 kts 214°
2026-05-05 17:12 39.66690 -74.53115 30586 ft 453 kts 214°
2026-05-05 17:12 39.64002 -74.55263 31086 ft 456 kts 213°
2026-05-05 17:13 39.61294 -74.57464 31434 ft 462 kts 214°
2026-05-05 17:13 39.58575 -74.59737 31752 ft 468 kts 215°
2026-05-05 17:13 39.55830 -74.62036 32087 ft 473 kts 214°
2026-05-05 17:13 39.53050 -74.64353 32464 ft 477 kts 214°
2026-05-05 17:14 39.50263 -74.66662 32941 ft 477 kts 214°
2026-05-05 17:14 39.47466 -74.68955 33465 ft 476 kts 214°
2026-05-05 17:14 39.44663 -74.71242 33977 ft 475 kts 214°
2026-05-05 17:14 39.41867 -74.73497 34459 ft 474 kts 213°
2026-05-05 17:15 39.39066 -74.75737 34912 ft 473 kts 213°
2026-05-05 17:15 39.36303 -74.77941 35690 ft 464 kts 211°
2026-05-05 17:15 39.33553 -74.80139 36028 ft 466 kts 213°
2026-05-05 17:15 39.30793 -74.82353 36124 ft 472 kts 214°
2026-05-05 17:16 39.25172 -74.86926 36134 ft 474 kts 214°
2026-05-05 17:16 39.19690 -74.91460 36120 ft 474 kts 215°
2026-05-05 17:17 39.14047 -74.96054 36075 ft 475 kts 214°
2026-05-05 17:17 39.08471 -75.00564 36053 ft 474 kts 214°
2026-05-05 17:18 39.02907 -75.05125 36059 ft 476 kts 216°
2026-05-05 17:18 38.97238 -75.09623 36038 ft 478 kts 213°
2026-05-05 17:19 38.91603 -75.14044 36019 ft 474 kts 214°
2026-05-05 17:19 38.86019 -75.18503 36017 ft 474 kts 214°
2026-05-05 17:20 38.80484 -75.22981 36028 ft 475 kts 214°
2026-05-05 17:20 38.74864 -75.27546 36025 ft 476 kts 214°
2026-05-05 17:21 38.69202 -75.31970 36022 ft 476 kts 213°
2026-05-05 17:22 38.60894 -75.38440 36043 ft 463 kts 213°
2026-05-05 17:22 38.55308 -75.42772 36061 ft 475 kts 214°
2026-05-05 17:23 38.49694 -75.47265 36078 ft 475 kts 215°
2026-05-05 17:23 38.44131 -75.51723 36118 ft 473 kts 214°
2026-05-05 17:24 38.38545 -75.56162 36148 ft 474 kts 214°
2026-05-05 17:24 38.32949 -75.60579 36166 ft 473 kts 215°
2026-05-05 17:25 38.27311 -75.65081 36183 ft 478 kts 214°
2026-05-05 17:25 38.21678 -75.69431 36185 ft 472 kts 213°
2026-05-05 17:26 38.16062 -75.73731 36165 ft 471 kts 214°
2026-05-05 17:26 38.10504 -75.78072 36168 ft 469 kts 214°
2026-05-05 17:27 38.04950 -75.82445 36180 ft 470 kts 215°
2026-05-05 17:27 37.99394 -75.86840 36169 ft 471 kts 214°
2026-05-05 17:28 37.93771 -75.91178 36176 ft 481 kts 214°
2026-05-05 17:28 37.88132 -75.95452 36184 ft 465 kts 213°
2026-05-05 17:29 37.82560 -75.99676 36136 ft 470 kts 214°
2026-05-05 17:29 37.76987 -76.03960 36123 ft 469 kts 214°
2026-05-05 17:30 37.71396 -76.08220 36151 ft 470 kts 214°
2026-05-05 17:30 37.65840 -76.12608 36159 ft 472 kts 214°
2026-05-05 17:31 37.60185 -76.16809 36164 ft 478 kts 208°
2026-05-05 17:31 37.53827 -76.19348 36160 ft 471 kts 193°
2026-05-05 17:31 37.50669 -76.20146 36149 ft 459 kts 194°
2026-05-05 17:32 37.47508 -76.20971 36138 ft 468 kts 195°
2026-05-05 17:32 37.41074 -76.22840 36136 ft 478 kts 197°
2026-05-05 17:33 37.34623 -76.24857 36145 ft 478 kts 197°
2026-05-05 17:33 37.29252 -76.26589 36142 ft 480 kts 198°
2026-05-05 17:34 37.22809 -76.28661 36155 ft 479 kts 197°
2026-05-05 17:34 37.16295 -76.30702 36186 ft 481 kts 197°
2026-05-05 17:35 37.09845 -76.32751 36200 ft 480 kts 198°
2026-05-05 17:35 37.03376 -76.34874 36210 ft 481 kts 198°
2026-05-05 17:36 36.96900 -76.36960 36209 ft 482 kts 198°
2026-05-05 17:36 36.90399 -76.39015 36208 ft 482 kts 197°
2026-05-05 17:37 36.83913 -76.41021 36216 ft 482 kts 197°
2026-05-05 17:37 36.77376 -76.43002 36208 ft 484 kts 197°
2026-05-05 17:38 36.70889 -76.45032 36219 ft 480 kts 198°
2026-05-05 17:38 36.64404 -76.47132 36232 ft 482 kts 198°
2026-05-05 17:39 36.57915 -76.49212 36234 ft 483 kts 197°
2026-05-05 17:39 36.51387 -76.51200 36237 ft 483 kts 197°
2026-05-05 17:40 36.44880 -76.53170 36243 ft 482 kts 197°
2026-05-05 17:40 36.38358 -76.55176 36251 ft 487 kts 197°
2026-05-05 17:41 36.31825 -76.57224 36273 ft 483 kts 198°
2026-05-05 17:41 36.25342 -76.59298 36278 ft 482 kts 198°
2026-05-05 17:42 36.18827 -76.61316 36286 ft 483 kts 197°
2026-05-05 17:42 36.12287 -76.63228 36294 ft 484 kts 197°
2026-05-05 17:43 36.05747 -76.65171 36299 ft 484 kts 197°
2026-05-05 17:43 35.99200 -76.67154 36301 ft 484 kts 198°
2026-05-05 17:44 35.92677 -76.69168 36301 ft 483 kts 198°
2026-05-05 17:44 35.86389 -76.71941 36303 ft 478 kts 208°
2026-05-05 17:45 35.80497 -76.75678 36305 ft 477 kts 211°
2026-05-05 17:45 35.74658 -76.79548 36302 ft 478 kts 211°
2026-05-05 17:46 35.68760 -76.83306 36294 ft 479 kts 210°
2026-05-05 17:46 35.62777 -76.86958 36277 ft 480 kts 210°
2026-05-05 17:47 35.56768 -76.90534 36262 ft 482 kts 209°
2026-05-05 17:47 35.50752 -76.94123 36246 ft 479 kts 210°
2026-05-05 17:48 35.44783 -76.97752 36247 ft 478 kts 210°
2026-05-05 17:48 35.38869 -77.01450 36254 ft 478 kts 211°
2026-05-05 17:49 35.32944 -77.05133 36265 ft 478 kts 211°
2026-05-05 17:49 35.27037 -77.08817 36294 ft 477 kts 211°
2026-05-05 17:50 35.21082 -77.12412 36304 ft 480 kts 210°
2026-05-05 17:50 35.15028 -77.15988 36289 ft 479 kts 210°
2026-05-05 17:51 35.09061 -77.19546 36310 ft 478 kts 209°
2026-05-05 17:51 35.03075 -77.23124 36312 ft 480 kts 210°
2026-05-05 17:52 34.97143 -77.26807 36307 ft 480 kts 211°
2026-05-05 17:52 34.91170 -77.30472 36299 ft 480 kts 211°
2026-05-05 17:53 34.85216 -77.34135 36300 ft 480 kts 211°
2026-05-05 17:53 34.79526 -77.37562 36298 ft 482 kts 210°
2026-05-05 17:54 34.73327 -77.41168 36304 ft 480 kts 210°
2026-05-05 17:54 34.71375 -77.42311 36305 ft 480 kts 210°
2026-05-05 17:55 34.67237 -77.44754 36316 ft 480 kts 210°
2026-05-05 17:55 34.66281 -77.45322 36317 ft 480 kts 210°